North Adams, MA

3:21 PM EDT on April 28, 2017 (GMT -0400)
Harriman And West

Weather History for KAQW - April, 2014

Change the Weather History Date:

Wednesday, April 9, 2014

  Actual Average Record
Temperature  
Mean Temperature 42 °F -  
Max Temperature 53 °F 52 °F 70 °F (2002)
Min Temperature 30 °F 30 °F 18 °F (1997)
Degree Days  
Heating Degree Days 22    
Moisture  
Dew Point 26 °F    
Average Humidity 59    
Maximum Humidity 92    
Minimum Humidity 22    
Precipitation  
Precipitation 0.00 in - - ()
Sea Level Pressure  
Sea Level Pressure 29.72 in    
Wind  
Wind Speed 9 mph (WNW)    
Max Wind Speed 16 mph    
Max Gust Speed 29 mph    
Visibility 10 miles    
Events      
Averages and records for this station are not official NWS values.
T = Trace of Precipitation, MM = Missing Value Source: NWS Daily Summary

Daily Weather History Graph

Daily Weather History Graph

Search for Another Location

Airport or City:

Trip Planner

Search our weather history database for the weather conditions in past years. The results will help you decide how hot, cold, wet, or windy it might be!

Date:

Astronomy

Apr. 09, 2014 Rise Set
Actual Time 6:21 AM EDT 7:27 PM EDT
Civil Twilight 5:52 AM EDT 7:56 PM EDT
Nautical Twilight 5:17 AM EDT 8:31 PM EDT
Astronomical Twilight 4:41 AM EDT 9:08 PM EDT
Moon 2:06 PM EDT (4/9) 3:15 AM EDT (4/9)
Length of Visible Light 14h 04m
Length of Day
13h 06m
Waxing Gibbous, 71% of the Moon is Illuminated
Apr 9
Waxing Gibbous
Apr 15
Full
Apr 22
Last Quarter
Apr 29
New
May 6
First Quarter

Hourly Weather History & Observations

Time (EDT) Temp. Windchill Dew Point Humidity Pressure Visibility Wind Dir Wind Speed Gust Speed Precip Events Conditions
12:52 AM 41.0 °F 33.9 °F 34.0 °F 76% 29.60 in 10.0 mi West 12.7 mph 21.9 mph N/A   Overcast
1:47 AM 41.0 °F 34.3 °F 33.8 °F 76% 29.58 in 10.0 mi West 11.5 mph 17.3 mph N/A   Mostly Cloudy
1:52 AM 41.0 °F 34.7 °F 34.0 °F 76% 29.59 in 10.0 mi West 10.4 mph - N/A   Mostly Cloudy
2:06 AM 39.9 °F 33.4 °F 34.0 °F 79% 29.59 in 10.0 mi West 10.4 mph - N/A   Mostly Cloudy
2:52 AM 39.9 °F 37.8 °F 34.0 °F 79% 29.61 in 10.0 mi West 3.5 mph - N/A   Overcast
3:52 AM 37.0 °F 31.6 °F 32.0 °F 82% 29.61 in 10.0 mi WSW 6.9 mph - N/A   Mostly Cloudy
4:52 AM 37.9 °F 33.5 °F 33.1 °F 83% 29.62 in 10.0 mi West 5.8 mph - N/A   Overcast
5:26 AM 33.1 °F 28.7 °F 30.9 °F 92% 29.61 in 10.0 mi WNW 4.6 mph - N/A   Scattered Clouds
5:52 AM 33.1 °F 28.7 °F 30.9 °F 92% 29.63 in 10.0 mi NW 4.6 mph - N/A   Clear
6:52 AM 35.1 °F 32.2 °F 33.1 °F 92% 29.65 in 10.0 mi NW 3.5 mph - N/A   Partly Cloudy
7:52 AM 39.9 °F 34.5 °F 34.0 °F 79% 29.67 in 10.0 mi NNW 8.1 mph - N/A   Scattered Clouds
8:05 AM 39.9 °F 35.8 °F 34.0 °F 79% 29.65 in 10.0 mi Variable 5.8 mph - N/A   Mostly Cloudy
8:52 AM 42.1 °F 37.7 °F 34.0 °F 73% 29.68 in 10.0 mi WNW 6.9 mph - N/A   Overcast
9:52 AM 43.0 °F 37.2 °F 34.0 °F 71% 29.69 in 10.0 mi WNW 10.4 mph 19.6 mph N/A   Overcast
10:33 AM 45.0 °F 38.5 °F 33.1 °F 63% 29.69 in 10.0 mi West 13.8 mph 20.7 mph N/A   Overcast
10:52 AM 46.9 °F - 32.0 °F 56% 29.71 in 10.0 mi WNW 8.1 mph 23.0 mph N/A   Overcast
11:52 AM 46.9 °F - 28.9 °F 50% 29.71 in 10.0 mi Variable 4.6 mph - N/A   Overcast
12:52 PM 52.0 °F - 23.0 °F 32% 29.71 in 10.0 mi WNW 15.0 mph 28.8 mph N/A   Mostly Cloudy
1:52 PM 48.9 °F - 19.9 °F 32% 29.72 in 10.0 mi NW 11.5 mph 23.0 mph N/A   Mostly Cloudy
2:52 PM 48.0 °F - 18.0 °F 30% 29.73 in 10.0 mi WNW 13.8 mph 26.5 mph N/A   Mostly Cloudy
3:52 PM 50.0 °F - 16.0 °F 26% 29.74 in 10.0 mi WNW 9.2 mph 27.6 mph N/A   Scattered Clouds
4:52 PM 48.9 °F - 10.9 °F 22% 29.76 in 10.0 mi WNW 16.1 mph 27.6 mph N/A   Partly Cloudy
6:52 PM 45.0 °F 40.1 °F 8.1 °F 22% 29.82 in 10.0 mi WNW 9.2 mph 19.6 mph N/A   Clear
7:52 PM 42.1 °F 37.7 °F 9.0 °F 26% 29.86 in 10.0 mi WNW 6.9 mph - N/A   Clear
8:52 PM 39.0 °F 33.4 °F 9.0 °F 29% 29.91 in 10.0 mi West 8.1 mph - N/A   Clear
9:52 PM 35.1 °F 30.1 °F 12.9 °F 40% 29.95 in 10.0 mi West 5.8 mph - N/A   Clear
10:52 PM 36.0 °F 31.1 °F 15.1 °F 43% 29.97 in 10.0 mi West 5.8 mph - N/A   Clear
11:52 PM 30.0 °F 26.5 °F 18.0 °F 61% 30.00 in 10.0 mi Variable 3.5 mph - N/A   Clear